Regional Weather Roundup
Issued by NWS

Home | Current Version | Previous Version | Graphics & Text | Print | Product List | Glossary Off
Versions: 1 2 3 4 5 6 7 8 9 10 11 12 13 14 15 16 17 18 19 20 21 22 23 24 25 26 27 28 29 30 31 32 33 34 35 36 37 38 39 40 41 42 43 44 45 46 47 48 49 50

000
ASUS43 KMKX 300711
RWRWI

WISCONSIN REGIONAL WEATHER ROUNDUP
NATIONAL WEATHER SERVICE MILWAUKEE/SULLIVAN WI
200 AM CDT SAT APR 30 2016

NOTE: "FAIR" INDICATES FEW OR NO CLOUDS BELOW 12,000 FEET WITH NO
SIGNIFICANT WEATHER AND/OR OBSTRUCTIONS TO VISIBILITY.

WIZ001-002-006>008-014>016-023>028-300800-
NORTHWEST WISCONSIN

CITY           SKY/WX    TMP DP  RH WIND       PRES   REMARKS
SUPERIOR ARPT  CLEAR     34  33  94 CALM      30.23S
ASHLAND        CLEAR     28  28 100 NE5       30.24R WCI  23
HAYWARD        MOCLDY    34  27  75 NE8       30.19R WCI  27
SIREN          CLEAR     38  29  71 NE5       30.18S WCI  34
CUMBERLAND     CLEAR     37  30  75 NE3       30.16R
RICE LAKE      CLEAR     40  31  69 N3        30.17R
CHETEK         CLEAR     42  32  66 NE3       30.16R
LADYSMITH      CLEAR     41  31  69 NE5       30.17S
EAU CLAIRE     CLOUDY    43  33  68 NE6       30.13R
MENOMONIE      PTCLDY    43  34  70 N5        30.14R
NEW RICHMOND   PTCLDY    41  32  70 NE5       30.16R
OSCEOLA        CLEAR     43  33  68 NE5       30.19R
$$

WIZ003>005-009-010-017-018-300800-
NORTH CENTRAL WISCONSIN

CITY           SKY/WX    TMP DP  RH WIND       PRES   REMARKS
MANITOWISH WTR CLOUDY    38  31  74 NE5       30.19R WCI  35
ARBOR VITAE    CLEAR     42  30  64 CALM      30.18R
WOODRUFF       CLEAR     42  30  64 CALM      30.18R
RHINELANDER    CLEAR     38  29  70 E5        30.18R WCI  34
EAGLE RIVER    CLEAR     34  29  81 CALM      30.18R
LAND O LAKES   MOCLDY    32  30  90 N3        30.20R
PHILLIPS       CLEAR     36  30  78 CALM      30.16S
TOMAHAWK       CLEAR     32  31  94 CALM      30.17R
MEDFORD        CLEAR     37  34  90 E6        30.15R WCI  32
MERRILL        PTCLDY    35  32  90 CALM      30.18R
$$

WIZ029-030-035-036-043>047-300800-
CENTRAL WISCONSIN

CITY           SKY/WX    TMP DP  RH WIND       PRES   REMARKS
WAUSAU         PTCLDY    39  34  82 E5        30.15R
MOSINEE        CLOUDY    36  30  80 NE8       30.16R WCI  29
MARSHFIELD     CLOUDY    42  33  70 E6        30.13R
STEVENS POINT  PTCLDY    36  31  82 CALM      30.16R
WAUPACA        CLOUDY    39  34  82 N3        30.16R
WAUTOMA        NOT AVBL
WISC RAPIDS    CLOUDY    41  31  67 E6        30.15R
CAMP DOUGLAS   NOT AVBL
$$

WIZ011>013-019>022-031-037>040-048>050-300800-
NORTHEAST WISCONSIN

CITY           SKY/WX    TMP DP  RH WIND       PRES   REMARKS
ANTIGO         CLEAR     34  31  90 CALM      30.18R
SHAWANO        MOCLDY    39  34  81 N5        30.18R
OCONTO         CLEAR     34  34 100 NE3       30.17R
STURGEON BAY   CLEAR     41  27  56 NE8       30.18S
GREEN BAY      CLEAR     38  34  85 NW3       30.16R
MANITOWOC      CLEAR     37  31  78 CALM      30.16R
APPLETON       CLEAR     37  28  70 N3        30.13R
CLINTONVILLE   CLEAR     36  30  80 CALM      30.16R
OSHKOSH        PTCLDY    41  31  67 CALM      30.14R
$$

WIZ032>034-041-042-053>061-300800-
SOUTHWEST WISCONSIN

CITY           SKY/WX    TMP DP  RH WIND       PRES   REMARKS
LA CROSSE      CLOUDY    40  38  93 CALM      30.12R
SPARTA         CLOUDY    34  34 100 CALM      30.13S
VIROQUA        CLOUDY    41  36  84 E6        30.10S
BOSCOBEL       MOCLDY    41  39  93 CALM      30.10F
PRAIRIE DU CHI CLOUDY    40  37  89 CALM      30.08F
PLATTEVILLE    CLOUDY    41  39  93 E7        30.07F
$$

WIZ056-057-062-063-064-067-068-300800-
SOUTH CENTRAL WISCONSIN

CITY           SKY/WX    TMP DP  RH WIND       PRES   REMARKS
REEDSBURG      CLOUDY    40  36  84 E3        30.13R
BARABOO/DELLS  CLOUDY    42  36  79 SE3       30.13S
LONE ROCK      CLOUDY    41  36  82 E8        30.10F
MINERAL POINT  PTCLDY    41  37  87 E7        30.08F
MADISON        CLOUDY    42  37  82 NE5       30.13R
MIDDLETON      CLOUDY    44  38  77 E7        30.12S
WATERTOWN      CLOUDY    42  32  69 NE6       30.13R
MONROE         CLOUDY    39  37  93 NE6       30.09F WCI  35
JANESVILLE     CLOUDY    43  37  81 NE10      30.10F
$$

WIZ051-052-058>065-066-070>072-300800-
SOUTHEAST WISCONSIN

CITY           SKY/WX    TMP DP  RH WIND       PRES   REMARKS
MILWAUKEE      CLOUDY    42  32  67 NE5       30.13S
WAUKESHA       CLOUDY    39  30  70 NE5       30.14R
MILWAUKEE/TIMM PTCLDY    39  30  70 CALM      30.15R
RACINE         CLOUDY    45  34  65 E9        30.13F
BURLINGTON     CLOUDY    41  34  76 NE5       30.11F
KENOSHA        CLOUDY    43  35  73 NE7       30.11F
FOND DU LAC    PTCLDY    36  30  79 CALM      30.15R
SHEBOYGAN      CLOUDY    34  29  82 SW5       30.14R WCI  30
WEST BEND      CLOUDY    34  32  93 CALM      30.15R
JUNEAU         CLOUDY    39  29  67 NE3       30.15R
$$

LSZ147-162-300800-
LAKE SUPERIOR

STATION/POSITION TIME  TEMP    WIND        PRES    WAVE
                       AIR SEA DIR/SP/G            HT/PER
                 (UTC) (F)     (DEG/KT/KT) (MB)    (FT/S)
W MID LAKE BUOY  0650   39 36   30/ 10/ 12 1024.9R   1
DEVILS ISLAND    0700   40      70/ 16/ 18 1024.7S
SAXON HARBOR     0640   31     200/  3/  3 1023.4R
$$

LMZ867-665-643>646-300800-
LAKE MICHIGAN

STATION/POSITION TIME  TEMP    WIND        PRES    WAVE
                       AIR SEA DIR/SP/G            HT/PER
                 (UTC) (F)     (DEG/KT/KT) (MB)    (FT/S)
CHAMBERS ISLAND  0640   41      20/  8/ 10 1022.0R
N MID LAKE BUOY  0650   40 38   30/ 10/ 10 1022.1R   0
NORTHPORT PIER   0600   42     350/  3/  5 1022.0R
ALGOMA LAKESHORE 0615          340/  8/  9   N/A
KEWAUNEE LAKESHO 0600   42     330/  2/  4 1020.3R
SHEBOYGAN LAKESH 0700   43      10/  2/  3 1021.7R
PORT WASHINGTON  0600   41     320/  2/  4 1021.0F
S MID LAKE BUOY  0650   42 40   70/  8/  8 1020.0F   1
KENOSHA   LAKESH 0700   43      60/ 11/ 14 1019.3F
$$

TC  - TEMPERATURE IN CELSIUS
VSB - VISIBILITY IN STATUTE MILES
WCI - WIND CHILL INDEX
HX  - HEAT INDEX





USA.gov is the U.S. government's official web portal to all federal, state and local government web resources and services.